| time (UTC) | temp C | wind direction | speed KPH | gust KPH | rain 1hr cm | rain 24hr cm | rain mn cm | humidity % | barometer mb |
| 20260504151005 | 17 | 226 | 3.2 | 6.4 | 0.00 | 0.00 | 0.00 | 65 | 1013.4 |
| 20260504150505 | 17 | 229 | 3.2 | 6.4 | 0.00 | 0.00 | 0.00 | 64 | 1013.3 |
| 20260504141004 | 19 | 254 | 4.8 | 8.0 | 0.00 | 0.00 | 0.00 | 53 | 1013.0 |
| 20260504140504 | 19 | 259 | 4.8 | 9.7 | 0.00 | 0.00 | 0.00 | 53 | 1013.1 |
| 20260504130504 | 20 | 248 | 3.2 | 8.0 | 0.00 | 0.00 | 0.00 | 47 | 1012.9 |
| 20260504100504 | 19 | 262 | 8.0 | 12.9 | 0.00 | 0.00 | 0.00 | 49 | 1013.6 |
| 20260504082004 | 17 | 320 | 1.6 | 4.8 | 0.00 | 0.00 | 0.00 | 54 | 1014.0 |
| 20260504081004 | 17 | 246 | 0.0 | 3.2 | 0.00 | 0.00 | 0.00 | 55 | 1014.2 |
| 20260504080504 | 17 | 252 | 1.6 | 4.8 | 0.00 | 0.00 | 0.00 | 55 | 1014.0 |
| 20260504050505 | 12 | 55 | 3.2 | 6.4 | 0.00 | 0.00 | 0.00 | 70 | 1013.9 |
| 20260504050004 | 12 | 58 | 4.8 | 6.4 | 0.00 | 0.00 | 0.00 | 70 | 1014.0 |
| 20260504045004 | 12 | 57 | 3.2 | 6.4 | 0.00 | 0.00 | 0.00 | 69 | 1013.8 |
| 20260504044004 | 12 | 58 | 3.2 | 9.7 | 0.00 | 0.00 | 0.00 | 75 | 1013.8 |
| 20260504043505 | 12 | 54 | 4.8 | 9.7 | 0.00 | 0.00 | 0.00 | 75 | 1013.6 |
| 20260504043004 | 12 | 62 | 3.2 | 8.0 | 0.00 | 0.00 | 0.00 | 75 | 1013.9 |
| 20260504042504 | 12 | 75 | 3.2 | 6.4 | 0.00 | 0.00 | 0.00 | 75 | 1013.8 |
| 20260504042005 | 11 | 75 | 3.2 | 6.4 | 0.00 | 0.00 | 0.00 | 76 | 1013.8 |
| 20260504041504 | 11 | 73 | 3.2 | 6.4 | 0.00 | 0.00 | 0.00 | 76 | 1013.8 |
| 20260504040504 | 11 | 75 | 4.8 | 8.0 | 0.00 | 0.00 | 0.00 | 76 | 1013.9 |
| 20260504040004 | 11 | 71 | 4.8 | 8.0 | 0.00 | 0.00 | 0.00 | 76 | 1013.9 |
| 20260504035504 | 11 | 64 | 4.8 | 9.7 | 0.00 | 0.00 | 0.00 | 76 | 1013.9 |
| 20260504035004 | 11 | 61 | 4.8 | 9.7 | 0.00 | 0.00 | 0.00 | 76 | 1014.2 |
| 20260504034504 | 11 | 55 | 4.8 | 9.7 | 0.00 | 0.00 | 0.00 | 76 | 1014.2 |
| 20260504034004 | 11 | 56 | 3.2 | 6.4 | 0.00 | 0.00 | 0.00 | 76 | 1014.3 |
| 20260504033504 | 11 | 50 | 3.2 | 8.0 | 0.00 | 0.00 | 0.00 | 76 | 1014.2 |
| 20260504033004 | 11 | 48 | 3.2 | 8.0 | 0.00 | 0.00 | 0.00 | 76 | 1014.4 |
| 20260504032504 | 11 | 54 | 3.2 | 8.0 | 0.00 | 0.00 | 0.00 | 76 | 1014.4 |
| 20260504032005 | 11 | 56 | 4.8 | 6.4 | 0.00 | 0.00 | 0.00 | 75 | 1014.5 |
| 20260504031504 | 11 | 63 | 4.8 | 6.4 | 0.00 | 0.00 | 0.00 | 75 | 1014.5 |
| 20260504030504 | 11 | 64 | 4.8 | 6.4 | 0.00 | 0.00 | 0.00 | 75 | 1014.5 |
| 20260504030007 | 11 | 66 | 4.8 | 6.4 | 0.00 | 0.00 | 0.00 | 75 | 1014.8 |
| 20260504025504 | 11 | 64 | 4.8 | 6.4 | 0.00 | 0.00 | 0.00 | 75 | 1014.7 |
| 20260504025007 | 11 | 60 | 4.8 | 9.7 | 0.00 | 0.00 | 0.00 | 75 | 1014.7 |
| 20260504024004 | 11 | 62 | 4.8 | 8.0 | 0.00 | 0.00 | 0.00 | 75 | 1014.7 |
| 20260504023504 | 11 | 68 | 4.8 | 9.7 | 0.00 | 0.00 | 0.00 | 75 | 1014.7 |
| 20260504023004 | 11 | 69 | 4.8 | 9.7 | 0.00 | 0.00 | 0.00 | 75 | 1014.9 |
| 20260504022504 | 11 | 67 | 4.8 | 9.7 | 0.00 | 0.00 | 0.00 | 75 | 1014.8 |
| 20260504022004 | 11 | 71 | 3.2 | 6.4 | 0.00 | 0.00 | 0.00 | 75 | 1014.7 |
| 20260504021004 | 11 | 73 | 3.2 | 9.7 | 0.00 | 0.00 | 0.00 | 75 | 1014.7 |
| 20260504020505 | 11 | 65 | 1.6 | 4.8 | 0.00 | 0.00 | 0.00 | 75 | 1014.6 |
| 20260504020004 | 11 | 62 | 1.6 | 4.8 | 0.00 | 0.00 | 0.00 | 75 | 1014.7 |
| 20260504015504 | 11 | 62 | 3.2 | 6.4 | 0.00 | 0.03 | 0.00 | 75 | 1014.9 |
| 20260504015004 | 12 | 67 | 4.8 | 6.4 | 0.00 | 0.03 | 0.00 | 75 | 1014.8 |
| 20260504014504 | 12 | 61 | 6.4 | 9.7 | 0.00 | 0.03 | 0.00 | 75 | 1014.9 |
| 20260504014004 | 12 | 53 | 4.8 | 9.7 | 0.00 | 0.03 | 0.00 | 74 | 1014.7 |
| 20260504013504 | 12 | 57 | 4.8 | 8.0 | 0.00 | 0.03 | 0.00 | 74 | 1014.7 |
| 20260504012004 | 12 | 59 | 4.8 | 8.0 | 0.00 | 0.03 | 0.00 | 74 | 1014.8 |
| 20260504011004 | 12 | 72 | 4.8 | 6.4 | 0.00 | 0.03 | 0.00 | 69 | 1014.7 |
| 20260504010504 | 12 | 66 | 4.8 | 9.7 | 0.00 | 0.03 | 0.00 | 69 | 1014.7 |
| 20260504010004 | 12 | 70 | 3.2 | 9.7 | 0.00 | 0.03 | 0.00 | 69 | 1014.6 |
| 20260504004504 | 12 | 57 | 4.8 | 8.0 | 0.00 | 0.03 | 0.00 | 68 | 1014.8 |
| 20260504004004 | 12 | 64 | 3.2 | 8.0 | 0.00 | 0.03 | 0.00 | 69 | 1014.8 |
| 20260504003504 | 12 | 71 | 4.8 | 9.7 | 0.00 | 0.03 | 0.00 | 70 | 1014.8 |
| 20260504003004 | 12 | 77 | 4.8 | 9.7 | 0.00 | 0.03 | 0.00 | 70 | 1014.8 |
| 20260504002504 | 12 | 90 | 3.2 | 6.4 | 0.00 | 0.03 | 0.00 | 71 | 1014.7 |
| 20260504001504 | 13 | 109 | 3.2 | 6.4 | 0.00 | 0.03 | 0.00 | 69 | 1014.9 |
| 20260503235504 | 13 | 94 | 3.2 | 6.4 | 0.00 | 0.03 | 0.00 | 70 | 1014.9 |
| 20260503235003 | 13 | 88 | 3.2 | 4.8 | 0.00 | 0.03 | 0.00 | 69 | 1014.7 |
| 20260503234503 | 13 | 86 | 1.6 | 4.8 | 0.00 | 0.03 | 0.00 | 68 | 1014.9 |
| 20260503234005 | 13 | 77 | 1.6 | 3.2 | 0.00 | 0.03 | 0.00 | 68 | 1014.8 |
| 20260503233004 | 13 | 68 | 3.2 | 6.4 | 0.00 | 0.03 | 0.00 | 69 | 1014.8 |
| 20260503232004 | 13 | 77 | 4.8 | 11.3 | 0.00 | 0.03 | 0.00 | 68 | 1014.8 |
| 20260503231504 | 13 | 79 | 4.8 | 11.3 | 0.00 | 0.03 | 0.00 | 69 | 1014.8 |
| 20260503231004 | 13 | 82 | 4.8 | 11.3 | 0.00 | 0.03 | 0.00 | 69 | 1014.7 |
| 20260503230503 | 13 | 85 | 3.2 | 6.4 | 0.00 | 0.03 | 0.00 | 69 | 1014.9 |
| 20260503230004 | 13 | 86 | 3.2 | 4.8 | 0.00 | 0.03 | 0.00 | 69 | 1014.8 |
| 20260503225004 | 13 | 76 | 3.2 | 6.4 | 0.00 | 0.03 | 0.00 | 70 | 1014.7 |
| 20260503224504 | 13 | 75 | 4.8 | 8.0 | 0.00 | 0.03 | 0.00 | 70 | 1014.6 |
| 20260503223504 | 13 | 69 | 4.8 | 8.0 | 0.00 | 0.03 | 0.00 | 71 | 1014.8 |
| 20260503223004 | 13 | 73 | 4.8 | 8.0 | 0.00 | 0.03 | 0.00 | 71 | 1014.6 |
| 20260503222504 | 13 | 65 | 4.8 | 8.0 | 0.00 | 0.03 | 0.00 | 71 | 1014.6 |
| 20260503222004 | 13 | 63 | 4.8 | 8.0 | 0.00 | 0.03 | 0.00 | 71 | 1014.7 |
| 20260503221504 | 13 | 69 | 3.2 | 6.4 | 0.00 | 0.03 | 0.00 | 71 | 1014.4 |
| 20260503220504 | 13 | 84 | 1.6 | 4.8 | 0.00 | 0.03 | 0.00 | 71 | 1014.6 |
| 20260503220004 | 13 | 81 | 3.2 | 6.4 | 0.00 | 0.03 | 0.00 | 70 | 1014.9 |
| 20260503215504 | 13 | 86 | 3.2 | 6.4 | 0.00 | 0.03 | 0.03 | 70 | 1014.6 |
| 20260503215003 | 13 | 90 | 3.2 | 6.4 | 0.00 | 0.03 | 0.03 | 71 | 1014.7 |
| 20260503214504 | 13 | 87 | 3.2 | 6.4 | 0.00 | 0.03 | 0.03 | 71 | 1014.5 |
| 20260503214004 | 13 | 82 | 3.2 | 6.4 | 0.00 | 0.03 | 0.03 | 72 | 1014.5 |
| 20260503213504 | 13 | 74 | 4.8 | 8.0 | 0.00 | 0.03 | 0.03 | 72 | 1014.5 |
| 20260503213004 | 13 | 69 | 4.8 | 8.0 | 0.00 | 0.03 | 0.03 | 72 | 1014.4 |
| 20260503212504 | 13 | 64 | 4.8 | 8.0 | 0.00 | 0.03 | 0.03 | 73 | 1014.4 |
| 20260503211505 | 13 | 55 | 4.8 | 8.0 | 0.00 | 0.03 | 0.03 | 72 | 1014.4 |
| 20260503211004 | 13 | 61 | 3.2 | 8.0 | 0.00 | 0.03 | 0.03 | 71 | 1014.6 |
| 20260503210504 | 14 | 60 | 3.2 | 6.4 | 0.00 | 0.03 | 0.03 | 71 | 1014.4 |
| 20260503210005 | 14 | 55 | 3.2 | 6.4 | 0.00 | 0.03 | 0.03 | 70 | 1014.5 |
| 20260503204504 | 14 | 60 | 3.2 | 6.4 | 0.00 | 0.03 | 0.03 | 67 | 1014.4 |
| 20260503204004 | 14 | 52 | 3.2 | 8.0 | 0.00 | 0.03 | 0.03 | 68 | 1014.2 |
| 20260503203004 | 14 | 54 | 4.8 | 9.7 | 0.00 | 0.03 | 0.03 | 69 | 1014.4 |
| 20260503202004 | 14 | 48 | 3.2 | 6.4 | 0.00 | 0.03 | 0.03 | 69 | 1014.6 |
| 20260503201504 | 14 | 47 | 3.2 | 6.4 | 0.00 | 0.03 | 0.03 | 69 | 1014.6 |
| 20260503200504 | 14 | 52 | 4.8 | 9.7 | 0.00 | 0.03 | 0.03 | 71 | 1014.7 |
| 20260503200004 | 14 | 43 | 4.8 | 9.7 | 0.00 | 0.03 | 0.03 | 71 | 1014.6 |
| 20260503195503 | 14 | 32 | 4.8 | 9.7 | 0.00 | 0.03 | 0.03 | 71 | 1014.7 |
| 20260503195004 | 14 | 25 | 4.8 | 9.7 | 0.00 | 0.03 | 0.03 | 71 | 1014.8 |
| 20260503194504 | 14 | 24 | 4.8 | 8.0 | 0.00 | 0.03 | 0.03 | 71 | 1014.8 |
| 20260503194004 | 14 | 18 | 4.8 | 8.0 | 0.00 | 0.03 | 0.03 | 71 | 1014.7 |
| 20260503193004 | 14 | 18 | 4.8 | 8.0 | 0.00 | 0.03 | 0.03 | 71 | 1014.6 |
| 20260503192504 | 14 | 21 | 4.8 | 8.0 | 0.00 | 0.03 | 0.03 | 72 | 1014.6 |
| 20260503192007 | 13 | 29 | 4.8 | 8.0 | 0.00 | 0.03 | 0.03 | 74 | 1014.6 |
| 20260503191503 | 14 | 27 | 6.4 | 8.0 | 0.00 | 0.03 | 0.03 | 74 | 1014.6 |
| 20260503191004 | 14 | 30 | 6.4 | 11.3 | 0.00 | 0.03 | 0.03 | 73 | 1014.6 |
| 20260503190504 | 14 | 33 | 6.4 | 11.3 | 0.00 | 0.03 | 0.03 | 73 | 1014.6 |
| 20260503185504 | 14 | 38 | 4.8 | 8.0 | 0.00 | 0.03 | 0.03 | 74 | 1014.6 |
| 20260503185004 | 14 | 35 | 4.8 | 9.7 | 0.00 | 0.03 | 0.03 | 74 | 1014.6 |
| 20260503184505 | 14 | 38 | 4.8 | 9.7 | 0.00 | 0.03 | 0.03 | 73 | 1014.6 |
| 20260503184004 | 15 | 36 | 4.8 | 6.4 | 0.00 | 0.03 | 0.03 | 72 | 1014.7 |
| 20260503183505 | 15 | 35 | 4.8 | 8.0 | 0.00 | 0.03 | 0.03 | 71 | 1014.7 |
| 20260503183006 | 15 | 37 | 6.4 | 11.3 | 0.00 | 0.03 | 0.03 | 70 | 1014.8 |
| 20260503182505 | 15 | 44 | 4.8 | 11.3 | 0.00 | 0.03 | 0.03 | 69 | 1014.7 |
| 20260503182006 | 15 | 47 | 4.8 | 12.9 | 0.00 | 0.03 | 0.03 | 70 | 1014.7 |
| 20260503181506 | 15 | 50 | 6.4 | 12.9 | 0.00 | 0.03 | 0.03 | 69 | 1014.8 |
| 20260503181005 | 15 | 51 | 6.4 | 12.9 | 0.00 | 0.03 | 0.03 | 69 | 1014.8 |
| 20260503180505 | 15 | 51 | 4.8 | 9.7 | 0.00 | 0.03 | 0.03 | 69 | 1015.1 |
| 20260503175505 | 15 | 40 | 4.8 | 9.7 | 0.00 | 0.03 | 0.03 | 69 | 1015.0 |
| 20260503175005 | 15 | 35 | 4.8 | 8.0 | 0.00 | 0.03 | 0.03 | 70 | 1015.0 |
| 20260503174506 | 15 | 29 | 4.8 | 8.0 | 0.00 | 0.03 | 0.03 | 70 | 1015.0 |
| 20260503174007 | 15 | 31 | 4.8 | 8.0 | 0.00 | 0.03 | 0.03 | 70 | 1015.1 |
| 20260503173505 | 15 | 33 | 4.8 | 11.3 | 0.00 | 0.03 | 0.03 | 69 | 1015.2 |
| 20260503172505 | 15 | 42 | 4.8 | 8.0 | 0.00 | 0.03 | 0.03 | 69 | 1015.1 |
| 20260503172008 | 15 | 38 | 4.8 | 9.7 | 0.00 | 0.03 | 0.03 | 69 | 1015.2 |
| 20260503171505 | 15 | 39 | 4.8 | 9.7 | 0.00 | 0.03 | 0.03 | 68 | 1015.3 |
| 20260503171006 | 15 | 35 | 3.2 | 9.7 | 0.00 | 0.03 | 0.03 | 68 | 1015.3 |
| 20260503170505 | 15 | 35 | 6.4 | 11.3 | 0.00 | 0.03 | 0.03 | 69 | 1015.3 |